�������l�o���
Date,Time,MP-1(��Sv/h),MP-2(��Sv/h),MP-3(��Sv/h),MP-4(��Sv/h),MP-5(��Sv/h),MP-6(��Sv/h),MP-7(��Sv/h),MP-8(��Sv/h),����,����(m/s),���J
2021/04/20,00:00,0.629,0.925,0.586,1.139,0.803,0.372,0.651,0.608,��쐼,4.6,��
2021/04/20,00:10,0.628,0.924,0.586,1.139,0.800,0.371,0.651,0.609,��쐼,6.3,��
2021/04/20,00:20,0.629,0.926,0.585,1.139,0.802,0.371,0.652,0.609,��쐼,5.6,��
2021/04/20,00:30,0.629,0.926,0.585,1.139,0.801,0.372,0.651,0.610,��쐼,5.1,��
2021/04/20,00:40,0.629,0.925,0.588,1.139,0.803,0.372,0.651,0.610,��쐼,5.1,��
2021/04/20,00:50,0.628,0.925,0.587,1.140,0.802,0.371,0.650,0.611,��쐼,5.5,��
2021/04/20,01:00,0.630,0.925,0.585,1.141,0.802,0.372,0.651,0.608,��쐼,4.9,��
2021/04/20,01:10,0.630,0.924,0.588,1.139,0.804,0.373,0.649,0.609,��,4.5,��
2021/04/20,01:20,0.630,0.926,0.586,1.140,0.801,0.373,0.650,0.610,��,4.9,��
2021/04/20,01:30,0.628,0.924,0.587,1.141,0.802,0.371,0.649,0.609,��,4.7,��
2021/04/20,01:40,0.628,0.925,0.586,1.140,0.802,0.371,0.651,0.611,��쐼,4.8,��
2021/04/20,01:50,0.630,0.924,0.587,1.139,0.801,0.372,0.650,0.607,��,4.8,��
2021/04/20,02:00,0.629,0.924,0.586,1.139,0.801,0.372,0.650,0.609,��,4.6,��
2021/04/20,02:10,0.628,0.925,0.586,1.140,0.801,0.371,0.651,0.610,��,4.9,��
2021/04/20,02:20,0.627,0.925,0.587,1.141,0.804,0.372,0.651,0.608,��,5.0,��
2021/04/20,02:30,0.629,0.926,0.587,1.140,0.801,0.371,0.651,0.609,��,4.1,��
2021/04/20,02:40,0.629,0.925,0.587,1.139,0.801,0.371,0.652,0.609,��쓌,2.8,��
2021/04/20,02:50,0.628,0.926,0.586,1.139,0.802,0.371,0.649,0.608,��쓌,3.3,��
2021/04/20,03:00,0.628,0.926,0.585,1.140,0.803,0.371,0.650,0.608,��쓌,4.4,��
2021/04/20,03:10,0.629,0.926,0.586,1.138,0.800,0.372,0.650,0.609,��,4.2,��
2021/04/20,03:20,0.628,0.924,0.585,1.139,0.803,0.371,0.650,0.610,��,4.1,��
2021/04/20,03:30,0.627,0.926,0.584,1.141,0.802,0.372,0.651,0.608,��,5.0,��
2021/04/20,03:40,0.626,0.927,0.585,1.139,0.803,0.372,0.648,0.608,��쐼,5.8,��
2021/04/20,03:50,0.627,0.926,0.586,1.139,0.803,0.371,0.649,0.609,��쐼,5.9,��
2021/04/20,04:00,0.627,0.926,0.586,1.139,0.801,0.372,0.649,0.610,�쐼,5.1,��
2021/04/20,04:10,0.629,0.926,0.585,1.139,0.802,0.373,0.649,0.608,��쐼,5.2,��
2021/04/20,04:20,0.627,0.925,0.586,1.139,0.802,0.373,0.651,0.607,��쐼,3.9,��
2021/04/20,04:30,0.627,0.925,0.585,1.141,0.800,0.372,0.650,0.609,�쐼,2.6,��
2021/04/20,04:40,0.628,0.926,0.586,1.140,0.800,0.372,0.650,0.611,��,1.9,��
2021/04/20,04:50,0.627,0.924,0.585,1.140,0.803,0.371,0.650,0.607,��,1.7,��
2021/04/20,05:00,0.628,0.926,0.586,1.140,0.801,0.371,0.649,0.609,�k�k��,1.2,��
2021/04/20,05:10,0.629,0.925,0.584,1.140,0.802,0.370,0.651,0.610,�k�k��,1.2,��
2021/04/20,05:20,0.627,0.926,0.587,1.141,0.802,0.372,0.649,0.609,�k��,1.5,��
2021/04/20,05:30,0.628,0.923,0.584,1.140,0.803,0.371,0.650,0.608,��,2.8,��
2021/04/20,05:40,0.629,0.926,0.586,1.141,0.801,0.371,0.649,0.609,���쐼,6.3,��
2021/04/20,05:50,0.627,0.923,0.584,1.140,0.803,0.372,0.649,0.610,�쐼,7.0,��
2021/04/20,06:00,0.628,0.927,0.585,1.140,0.799,0.372,0.651,0.608,�쐼,6.3,��
2021/04/20,06:10,0.627,0.926,0.585,1.138,0.802,0.372,0.648,0.608,�쐼,6.9,��
2021/04/20,06:20,0.628,0.926,0.585,1.141,0.802,0.372,0.651,0.610,�쐼,7.6,��
2021/04/20,06:30,0.629,0.923,0.585,1.139,0.801,0.371,0.650,0.609,�쐼,8.1,��
2021/04/20,06:40,0.629,0.926,0.586,1.143,0.801,0.373,0.651,0.610,�쐼,7.4,��
2021/04/20,06:50,0.630,0.927,0.586,1.141,0.801,0.372,0.653,0.611,�쐼,7.7,��
2021/04/20,07:00,0.629,0.925,0.588,1.142,0.801,0.372,0.653,0.610,�쐼,8.1,��
2021/04/20,07:10,0.629,0.927,0.588,1.140,0.802,0.372,0.653,0.611,�쐼,7.5,��
2021/04/20,07:20,0.630,0.926,0.588,1.141,0.803,0.371,0.651,0.610,�쐼,7.3,��
2021/04/20,07:30,0.629,0.925,0.587,1.140,0.803,0.372,0.652,0.610,�쐼,5.9,��
2021/04/20,07:40,0.630,0.923,0.588,1.141,0.803,0.371,0.652,0.610,��쐼,4.7,��
2021/04/20,07:50,0.629,0.924,0.586,1.140,0.804,0.371,0.654,0.610,��쐼,3.7,��
2021/04/20,08:00,0.630,0.921,0.585,1.141,0.801,0.371,0.653,0.612,��쓌,3.5,��
2021/04/20,08:10,0.628,0.924,0.586,1.145,0.803,0.371,0.652,0.611,��쓌,5.0,��
2021/04/20,08:20,0.629,0.923,0.587,1.140,0.803,0.370,0.653,0.610,��쓌,6.1,�L
2021/04/20,08:30,0.630,0.924,0.587,1.143,0.803,0.370,0.651,0.609,��쓌,6.0,�L
2021/04/20,08:40,0.630,0.920,0.588,1.141,0.803,0.372,0.650,0.609,��쓌,7.0,�L
2021/04/20,08:50,0.628,0.923,0.587,1.144,0.802,0.370,0.651,0.607,��쓌,6.7,��
2021/04/20,09:00,0.630,0.921,0.586,1.143,0.802,0.371,0.650,0.609,��쓌,6.2,��
2021/04/20,09:10,0.630,0.924,0.586,1.140,0.805,0.372,0.651,0.608,��쓌,6.5,��
2021/04/20,09:20,0.629,0.923,0.586,1.142,0.804,0.370,0.651,0.608,��쓌,6.0,��
2021/04/20,09:30,0.629,0.923,0.585,1.143,0.804,0.372,0.652,0.608,��쓌,5.8,��
2021/04/20,09:40,0.628,0.925,0.586,1.143,0.803,0.372,0.651,0.609,��,5.5,��
2021/04/20,09:50,0.628,0.922,0.586,1.142,0.802,0.372,0.649,0.609,��,5.2,��
2021/04/20,10:00,0.629,0.922,0.587,1.144,0.804,0.374,0.650,0.608,���쐼,6.9,��
2021/04/20,10:10,0.630,0.923,0.587,1.143,0.804,0.373,0.652,0.607,���쐼,8.9,��
2021/04/20,10:20,0.629,0.924,0.587,1.144,0.802,0.372,0.654,0.609,��,10.7,��
2021/04/20,10:30,0.632,0.923,0.588,1.144,0.804,0.374,0.652,0.609,���쐼,9.5,��
2021/04/20,10:40,0.630,0.926,0.588,1.145,0.805,0.373,0.652,0.608,���쐼,9.7,��
2021/04/20,10:50,0.632,0.927,0.587,1.144,0.803,0.372,0.653,0.609,��,8.9,��
2021/04/20,11:00,0.633,0.927,0.587,1.146,0.805,0.372,0.652,0.608,���쐼,10.5,��
2021/04/20,11:10,0.631,0.927,0.586,1.144,0.805,0.373,0.652,0.609,��,8.2,��
2021/04/20,11:20,0.632,0.926,0.588,1.146,0.804,0.373,0.653,0.609,��,7.7,��
2021/04/20,11:30,0.634,0.929,0.587,1.145,0.807,0.373,0.655,0.610,��,9.3,��
2021/04/20,11:40,0.632,0.929,0.587,1.145,0.808,0.374,0.653,0.610,��,10.5,��
2021/04/20,11:50,0.633,0.931,0.590,1.143,0.807,0.372,0.654,0.610,���쐼,11.4,��
2021/04/20,12:00,0.633,0.929,0.590,1.146,0.806,0.375,0.653,0.609,���쐼,8.0,��
2021/04/20,12:10,0.633,0.931,0.588,1.145,0.807,0.375,0.654,0.610,��,8.1,��
2021/04/20,12:20,0.632,0.931,0.589,1.145,0.807,0.374,0.654,0.609,���쐼,9.2,��
2021/04/20,12:30,0.633,0.929,0.589,1.144,0.810,0.375,0.653,0.611,��,8.8,��
2021/04/20,12:40,0.633,0.930,0.589,1.145,0.810,0.375,0.655,0.611,��,8.7,��
2021/04/20,12:50,0.634,0.930,0.589,1.145,0.811,0.377,0.654,0.610,��,9.9,��
2021/04/20,13:00,0.635,0.930,0.590,1.147,0.810,0.376,0.653,0.612,��,10.7,��
2021/04/20,13:10,0.636,0.927,0.591,1.144,0.809,0.375,0.653,0.611,��,11.7,��
2021/04/20,13:20,0.635,0.930,0.589,1.149,0.809,0.375,0.653,0.611,��,10.5,��
2021/04/20,13:30,0.636,0.929,0.589,1.147,0.810,0.376,0.654,0.611,��,10.2,��
2021/04/20,13:40,0.637,0.929,0.592,1.145,0.810,0.375,0.655,0.610,��,8.2,��
2021/04/20,13:50,0.635,0.929,0.591,1.150,0.812,0.375,0.654,0.609,���쐼,9.8,��
2021/04/20,14:00,0.636,0.930,0.588,1.150,0.810,0.375,0.655,0.610,��,6.7,��
2021/04/20,14:10,0.634,0.930,0.590,1.149,0.809,0.376,0.654,0.609,���쐼,7.2,��
2021/04/20,14:20,0.636,0.929,0.591,1.150,0.811,0.376,0.656,0.611,���쐼,6.8,��
2021/04/20,14:30,0.634,0.931,0.590,1.150,0.811,0.376,0.653,0.612,��,7.3,��
2021/04/20,14:40,0.635,0.930,0.592,1.149,0.812,0.376,0.654,0.612,��,8.0,��
2021/04/20,14:50,0.636,0.930,0.590,1.149,0.812,0.377,0.655,0.611,��,8.5,��
2021/04/20,15:00,0.635,0.930,0.591,1.149,0.813,0.377,0.655,0.612,���쐼,9.9,��
2021/04/20,15:10,0.637,0.933,0.590,1.147,0.810,0.376,0.655,0.611,���쐼,8.0,��
2021/04/20,15:20,0.635,0.931,0.590,1.150,0.813,0.376,0.656,0.612,���쐼,10.5,��
2021/04/20,15:30,0.636,0.932,0.591,1.147,0.811,0.376,0.656,0.612,��,8.3,��
2021/04/20,15:40,0.634,0.930,0.590,1.151,0.811,0.376,0.655,0.611,��,9.0,��
2021/04/20,15:50,0.636,0.933,0.592,1.149,0.812,0.376,0.655,0.610,��,8.3,��
2021/04/20,16:00,0.635,0.929,0.591,1.150,0.812,0.376,0.655,0.612,���쐼,8.2,��
2021/04/20,16:10,0.637,0.932,0.591,1.150,0.812,0.376,0.654,0.610,��,8.6,��
2021/04/20,16:20,0.636,0.932,0.589,1.152,0.812,0.376,0.654,0.610,��,9.2,��
2021/04/20,16:30,0.634,0.934,0.591,1.151,0.810,0.375,0.655,0.613,��,10.3,��
2021/04/20,16:40,0.636,0.931,0.590,1.148,0.811,0.375,0.654,0.611,��,7.7,��
2021/04/20,16:50,0.634,0.932,0.590,1.149,0.812,0.377,0.654,0.611,��,9.6,��
2021/04/20,17:00,0.635,0.932,0.590,1.151,0.813,0.376,0.655,0.610,��,7.9,��
2021/04/20,17:10,0.635,0.934,0.589,1.150,0.812,0.377,0.654,0.610,��,6.7,��
2021/04/20,17:20,0.634,0.932,0.590,1.154,0.812,0.377,0.653,0.611,��,4.8,��
2021/04/20,17:30,0.633,0.934,0.591,1.152,0.812,0.377,0.654,0.612,��,3.7,��
2021/04/20,17:40,0.633,0.932,0.590,1.151,0.813,0.377,0.653,0.610,���쐼,3.6,��
2021/04/20,17:50,0.636,0.936,0.590,1.152,0.811,0.376,0.653,0.612,��,3.1,��
2021/04/20,18:00,0.636,0.935,0.592,1.152,0.813,0.376,0.654,0.613,��,4.0,��
2021/04/20,18:10,0.634,0.934,0.589,1.153,0.811,0.375,0.652,0.614,���쐼,4.7,��
2021/04/20,18:20,0.635,0.935,0.589,1.154,0.813,0.376,0.655,0.613,��,6.4,��
2021/04/20,18:30,0.636,0.934,0.590,1.154,0.814,0.377,0.653,0.614,��,6.9,��
2021/04/20,18:40,0.638,0.935,0.591,1.154,0.815,0.377,0.656,0.613,��,6.9,��
2021/04/20,18:50,0.637,0.937,0.588,1.158,0.815,0.376,0.656,0.613,���쐼,6.6,��
2021/04/20,19:00,0.638,0.936,0.591,1.156,0.814,0.377,0.655,0.612,��,6.2,��
2021/04/20,19:10,0.638,0.937,0.592,1.156,0.813,0.376,0.656,0.612,���쐼,4.1,��
2021/04/20,19:20,0.638,0.936,0.593,1.158,0.815,0.376,0.655,0.612,�쐼,3.7,��
2021/04/20,19:30,0.636,0.937,0.591,1.155,0.815,0.376,0.656,0.612,��,2.2,��
2021/04/20,19:40,0.637,0.938,0.592,1.154,0.816,0.376,0.654,0.613,���k��,1.9,��
2021/04/20,19:50,0.636,0.938,0.591,1.154,0.814,0.375,0.656,0.611,���k��,2.3,��
2021/04/20,20:00,0.638,0.936,0.592,1.157,0.815,0.375,0.656,0.612,���k��,2.0,��
2021/04/20,20:10,0.636,0.936,0.592,1.157,0.815,0.375,0.655,0.614,�k,0.9,��
2021/04/20,20:20,0.638,0.937,0.594,1.155,0.814,0.375,0.654,0.612,�k��,1.5,��
2021/04/20,20:30,0.636,0.937,0.591,1.155,0.815,0.375,0.654,0.613,-,CALM,��
2021/04/20,20:40,0.637,0.935,0.592,1.155,0.813,0.375,0.656,0.613,��,1.5,��
2021/04/20,20:50,0.636,0.936,0.592,1.155,0.814,0.376,0.654,0.613,��,2.3,��
2021/04/20,21:00,0.635,0.938,0.590,1.154,0.814,0.376,0.655,0.611,���쐼,3.3,��
2021/04/20,21:10,0.637,0.937,0.593,1.155,0.816,0.375,0.655,0.613,���쐼,3.4,��
2021/04/20,21:20,0.637,0.939,0.591,1.155,0.814,0.374,0.656,0.612,��,5.3,��
2021/04/20,21:30,0.635,0.937,0.590,1.154,0.813,0.376,0.655,0.611,���쐼,6.5,��
2021/04/20,21:40,0.635,0.937,0.593,1.156,0.813,0.375,0.656,0.612,��,7.7,��
2021/04/20,21:50,0.637,0.935,0.592,1.154,0.815,0.375,0.657,0.613,��,8.0,��
2021/04/20,22:00,0.636,0.934,0.590,1.156,0.816,0.374,0.657,0.613,��,6.1,��
2021/04/20,22:10,0.635,0.936,0.592,1.155,0.815,0.375,0.656,0.611,��,6.7,��
2021/04/20,22:20,0.636,0.934,0.591,1.154,0.814,0.375,0.657,0.613,���k��,4.7,��
2021/04/20,22:30,0.636,0.936,0.593,1.155,0.813,0.374,0.655,0.614,��,4.5,��
2021/04/20,22:40,0.635,0.935,0.592,1.158,0.814,0.376,0.655,0.612,��,5.1,��
2021/04/20,22:50,0.635,0.936,0.591,1.156,0.814,0.375,0.656,0.613,���k��,6.9,��
2021/04/20,23:00,0.634,0.936,0.592,1.154,0.816,0.375,0.655,0.613,���k��,7.2,��
2021/04/20,23:10,0.634,0.935,0.591,1.155,0.816,0.376,0.654,0.612,��,8.6,��
2021/04/20,23:20,0.635,0.935,0.591,1.154,0.814,0.374,0.656,0.613,��,9.0,��
2021/04/20,23:30,0.634,0.936,0.590,1.156,0.815,0.374,0.655,0.612,��,9.3,��
2021/04/20,23:40,0.634,0.935,0.592,1.157,0.815,0.374,0.656,0.611,��,8.6,��
2021/04/20,23:50,0.634,0.937,0.591,1.156,0.814,0.373,0.656,0.612,��,8.2,��
